DW5174 Weather Reports


Display with metric or nautical units.
time (UTC)temp
F
wind
direction
speed
MPH
gust
MPH
rain 1hr
in
rain 24hr
in
rain mn
in
humidity
%
barometer
mb
20180920202206 45 330 4.0 16.0 0.07 0.65 0.65 100 997.8
20180920201705 45 334 3.0 16.0 0.09 0.65 0.65 100 997.7
20180920201205 45 334 4.0 14.0 0.09 0.64 0.64 100 997.3
20180920200705 45 338 8.0 14.0 0.09 0.63 0.63 100 997.3
20180920200204 45 351 6.0 14.0 0.10 0.63 0.63 100 997.4
20180920195705 45 351 3.0 16.0 0.11 0.62 0.62 100 997.5
20180920195206 45 1 1.0 16.0 0.11 0.62 0.62 100 997.5
20180920194704 45 4 6.0 17.0 0.11 0.61 0.61 100 997.5
20180920194205 45 320 8.0 20.0 0.11 0.61 0.61 100 997.7
20180920193705 46 330 7.0 21.0 0.10 0.60 0.60 100 997.7
20180920193204 46 341 8.0 21.0 0.09 0.59 0.59 100 997.6
20180920192705 46 317 13.0 20.0 0.09 0.57 0.57 100 997.5
20180920192206 46 261 11.0 20.0 0.09 0.57 0.57 100 997.4
20180920191705 46 299 8.0 20.0 0.07 0.56 0.56 100 997.4
20180920191205 46 309 7.0 20.0 0.07 0.56 0.56 100 997.1
20180920190704 46 333 5.0 18.0 0.06 0.54 0.54 100 997.0
20180920190205 46 288 11.0 17.0 0.05 0.52 0.52 100 996.9
20180920185705 47 23 9.0 20.0 0.05 0.51 0.51 100 996.9
20180920185205 47 7 0.0 20.0 0.05 0.51 0.51 100 996.6
20180920184705 47 329 9.0 20.0 0.05 0.50 0.50 100 996.5
20180920184205 47 302 5.0 20.0 0.06 0.50 0.50 100 996.3
20180920183705 47 26 6.0 18.0 0.06 0.50 0.50 100 996.1
20180920183205 47 352 9.0 18.0 0.06 0.50 0.50 100 996.0
20180920182705 47 5 8.0 18.0 0.06 0.49 0.49 100 996.0
20180920182205 47 357 9.0 18.0 0.06 0.49 0.49 100 996.1
20180920181705 47 329 7.0 18.0 0.07 0.49 0.49 100 996.2
20180920181205 47 355 12.0 16.0 0.06 0.48 0.48 100 996.4
20180920180705 47 352 4.0 16.0 0.06 0.48 0.48 100 996.7
20180920180205 47 354 3.0 18.0 0.06 0.47 0.47 100 996.9
20180920175704 47 337 1.0 18.0 0.06 0.45 0.45 100 996.8
20180920175205 47 345 7.0 18.0 0.06 0.45 0.45 100 996.8
20180920174705 47 19 9.0 15.0 0.05 0.45 0.45 100 996.8
20180920174205 47 330 0.0 15.0 0.04 0.44 0.44 100 996.9
20180920173705 47 39 3.0 15.0 0.04 0.44 0.44 100 996.6
20180920173205 48 28 4.0 14.0 0.04 0.44 0.44 100 996.7
20180920172705 48 357 1.0 15.0 0.05 0.43 0.43 100 996.8
20180920172206 48 351 7.0 15.0 0.04 0.42 0.43 100 996.7
20180920171706 48 0 7.0 15.0 0.04 0.42 0.42 100 996.6
20180920171205 48 317 8.0 15.0 0.04 0.42 0.42 100 996.7
20180920170705 48 324 6.0 11.0 0.04 0.41 0.41 100 996.7
20180920170205 49 15 4.0 9.0 0.05 0.41 0.41 100 996.8
20180920165705 49 26 1.0 8.0 0.05 0.40 0.40 100 996.8
20180920165206 49 2 2.0 8.0 0.05 0.40 0.40 100 996.9
20180920164705 49 317 0.0 8.0 0.05 0.40 0.40 100 997.0
20180920164205 49 5 2.0 11.0 0.05 0.40 0.40 100 997.2
20180920163705 49 331 2.0 12.0 0.06 0.40 0.40 100 997.3
20180920163205 49 320 0.0 14.0 0.06 0.39 0.39 100 997.3
20180920162705 49 12 1.0 10.0 0.07 0.39 0.39 99 997.5
20180920162206 49 357 5.0 10.0 0.07 0.39 0.39 99 997.7
20180920161705 49 5 0.0 10.0 0.08 0.38 0.38 99 997.7
20180920161205 49 16 1.0 12.0 0.08 0.38 0.38 99 997.9
20180920160705 49 338 0.0 12.0 0.07 0.37 0.37 99 998.0
20180920160205 50 338 1.0 12.0 0.07 0.37 0.37 98 998.2
20180920155705 50 324 2.0 11.0 0.06 0.35 0.35 99 998.3
20180920155205 50 313 0.0 11.0 0.06 0.35 0.35 99 998.4
20180920154705 50 12 0.0 11.0 0.06 0.35 0.35 98 998.5
20180920154206 50 337 5.0 5.0 0.04 0.34 0.34 98 998.5
20180920153705 51 351 0.0 0.0 0.04 0.33 0.33 98 998.8
20180920153204 51 351 0.0 3.0 0.03 0.32 0.32 98 998.9
20180920152704 51 351 0.0 3.0 0.02 0.31 0.31 98 998.8
20180920152206 51 351 0.0 3.0 0.02 0.31 0.31 98 998.8
20180920151705 51 351 0.0 0.0 0.01 0.30 0.30 97 998.8
20180920151206 51 351 0.0 0.0 0.01 0.30 0.30 97 998.9
20180920150705 51 351 0.0 0.0 0.01 0.30 0.30 97 998.8
20180920150205 51 351 0.0 9.0 0.01 0.30 0.30 97 998.9
20180920145705 51 351 0.0 9.0 0.01 0.30 0.30 97 999.0
20180920145206 51 351 0.0 9.0 0.01 0.30 0.30 96 999.0
20180920144705 51 74 0.0 11.0 0.00 0.29 0.29 96 999.0
20180920144205 51 60 2.0 11.0 0.00 0.29 0.29 96 999.4
20180920143705 51 60 0.0 11.0 0.00 0.29 0.29 96 999.6
20180920143205 51 60 4.0 9.0 0.00 0.29 0.29 96 999.8
20180920142705 52 42 1.0 8.0 0.00 0.29 0.29 98 1000.0
20180920142206 52 336 0.0 8.0 0.00 0.29 0.29 98 1000.0
20180920141705 52 29 0.0 8.0 0.00 0.29 0.29 98 1000.2
20180920141205 51 22 0.0 9.0 0.01 0.29 0.29 98 1000.3
20180920140704 51 37 1.0 10.0 0.01 0.29 0.29 98 1000.3
20180920140205 52 40 1.0 10.0 0.02 0.29 0.29 98 1000.6
20180920135704 51 33 7.0 9.0 0.03 0.29 0.29 98 1000.6
20180920135205 51 15 3.0 9.0 0.03 0.29 0.29 98 1000.8
20180920134706 51 28 0.0 9.0 0.03 0.29 0.29 99 1001.1
20180920134205 51 320 0.0 4.0 0.04 0.29 0.29 99 1001.2
20180920133705 51 320 0.0 0.0 0.05 0.29 0.29 99 1001.4
20180920133205 51 36 0.0 0.0 0.05 0.29 0.29 99 1001.5
20180920132706 51 36 0.0 0.0 0.07 0.29 0.29 98 1001.7
20180920132206 51 36 0.0 0.0 0.07 0.29 0.29 98 1001.4
20180920131704 51 36 0.0 0.0 0.08 0.29 0.28 98 1001.6
20180920131205 50 36 0.0 0.0 0.07 0.28 0.28 98 1001.9
20180920130705 50 36 0.0 0.0 0.07 0.28 0.28 98 1002.1
20180920130205 50 36 0.0 0.0 0.07 0.28 0.28 98 1002.3
20180920125705 50 36 0.0 0.0 0.07 0.26 0.26 98 1002.5
20180920125205 50 36 0.0 0.0 0.07 0.26 0.26 98 1002.6
20180920124704 50 36 0.0 2.0 0.07 0.26 0.26 98 1002.7
20180920124206 50 36 0.0 2.0 0.08 0.26 0.26 98 1002.8
20180920123704 50 36 0.0 2.0 0.07 0.24 0.24 98 1002.9
20180920123206 50 36 0.0 0.0 0.06 0.23 0.23 98 1003.1
20180920122706 50 36 0.0 0.0 0.07 0.22 0.22 98 1003.2
20180920122205 50 36 0.0 0.0 0.07 0.22 0.22 98 1003.2
20180920121707 50 36 0.0 0.0 0.06 0.22 0.22 98 1003.2
20180920121206 50 36 0.0 0.0 0.07 0.22 0.21 98 1003.3
20180920120705 50 36 0.0 0.0 0.07 0.21 0.21 98 1003.4
20180920120205 50 36 0.0 0.0 0.07 0.21 0.21 97 1003.6
20180920115705 50 36 0.0 5.0 0.07 0.20 0.20 97 1003.6
20180920115206 50 36 0.0 5.0 0.07 0.20 0.20 98 1003.6
20180920114930 51 36 0.0 5.0 0.08 0.19 0.19 98 1003.6
20180920114205 51 36 0.0 5.0 0.07 0.18 0.18 98 1003.8
20180920113705 51 94 0.0 0.0 0.07 0.17 0.17 98 1003.9
20180920113205 50 94 0.0 0.0 0.07 0.16 0.16 97 1004.1
20180920112706 50 94 0.0 0.0 0.06 0.15 0.15 97 1004.3
20180920112206 50 94 0.0 0.0 0.07 0.15 0.15 96 1004.3
20180920111705 50 94 0.0 0.0 0.07 0.15 0.14 96 1004.6
20180920111205 50 94 0.0 0.0 0.07 0.14 0.14 96 1004.9
20180920110706 50 94 0.0 0.0 0.06 0.13 0.13 96 1004.9
20180920110205 51 94 0.0 0.0 0.07 0.13 0.12 96 1005.0
20180920105705 50 94 0.0 6.0 0.06 0.11 0.11 96 1005.1
20180920105205 51 94 0.0 6.0 0.06 0.11 0.11 96 1005.3
20180920104704 51 94 0.0 6.0 0.06 0.11 0.11 97 1005.5
20180920104205 51 94 3.0 0.0 0.07 0.10 0.10 97 1005.7
20180920103704 51 185 0.0 0.0 0.07 0.10 0.10 97 1006.0
20180920103205 51 185 0.0 0.0 0.06 0.09 0.09 97 1006.1
20180920102705 51 185 0.0 0.0 0.07 0.09 0.09 97 1006.1
20180920102206 51 185 0.0 0.0 0.07 0.09 0.09 97 1006.0
20180920101705 51 185 0.0 0.0 0.07 0.09 0.09 97 1006.1
20180920101205 51 185 0.0 0.0 0.06 0.07 0.07 97 1006.3
20180920100705 51 185 0.0 0.0 0.06 0.07 0.07 98 1006.4
20180920100205 51 185 0.0 0.0 0.06 0.07 0.07 97 1006.7
20180920095705 51 185 0.0 0.0 0.04 0.05 0.05 97 1006.9
20180920095206 50 185 0.0 0.0 0.04 0.05 0.05 97 1006.9
20180920094705 50 185 0.0 0.0 0.03 0.04 0.04 97 1007.0
20180920094205 50 185 0.0 0.0 0.04 0.04 0.04 97 1007.0
20180920093707 50 185 0.0 0.0 0.04 0.04 0.04 97 1006.9
20180920093205 50 185 0.0 0.0 0.03 0.03 0.03 97 1006.9
20180920092707 50 185 0.0 0.0 0.02 0.02 0.02 97 1006.9
20180920092205 50 185 0.0 0.0 0.02 0.02 0.02 97 1007.0
20180920091715 50 185 0.0 0.0 0.02 0.02 0.02 97 1007.0
20180920091205 50 185 0.0 0.0 0.01 0.01 0.01 98 1007.0
20180920090706 50 185 0.0 0.0 0.01 0.01 0.01 97 1007.1
20180920090206 50 185 0.0 0.0 0.01 0.01 0.01 98 1007.2
20180920085720 50 185 0.0 0.0 0.01 0.01 0.01 98 1007.2
20180920085206 49 185 0.0 0.0 0.01 0.01 0.01 98 1007.3
20180920084705 49 185 0.0 0.0 0.01 0.01 0.01 98 1007.4
20180920084205 49 185 0.0 0.0 0.00 0.00 0.00 98 1007.4
20180920083706 49 185 0.0 0.0 0.00 0.00 0.00 98 1007.6
20180920083204 49 185 0.0 0.0 0.00 0.00 0.00 98 1007.7
20180920082704 49 185 0.0 0.0 0.00 0.00 0.00 98 1007.8
20180920082205 49 185 0.0 0.0 0.00 0.00 0.00 98 1007.8
20180920081706 48 185 0.0 0.0 0.00 0.00 0.00 98 1007.9
20180920081205 48 185 0.0 0.0 0.00 0.00 0.00 98 1007.9
20180920080705 48 185 0.0 0.0 0.00 0.00 0.00 98 1007.9
20180920080205 48 185 0.0 0.0 0.00 0.00 0.00 99 1008.1
20180920075705 48 185 0.0 0.0 0.00 0.00 0.00 99 1008.1
20180920075206 47 185 0.0 0.0 0.00 0.00 0.00 98 1008.1
20180920074704 47 185 0.0 0.0 0.00 0.00 0.00 98 1008.2
20180920074205 47 185 0.0 0.0 0.00 0.00 0.00 98 1008.3
20180920073705 47 185 0.0 0.0 0.00 0.00 0.00 98 1008.3
20180920073205 47 185 0.0 0.0 0.00 0.00 0.00 99 1008.2
20180920072705 47 185 0.0 0.0 0.00 0.00 0.00 99 1008.3
20180920072206 47 185 0.0 0.0 0.00 0.00 0.00 99 1008.3
20180920071705 46 185 0.0 0.0 0.00 0.00 0.00 99 1008.3
20180920071205 46 185 0.0 0.0 0.00 0.00 0.00 98 1008.5
20180920070704 46 185 0.0 0.0 0.00 0.00 0.00 98 1008.5
20180920070206 46 185 0.0 0.0 0.00 0.00 0.00 98 1008.6
20180920065704 46 185 0.0 0.0 0.00 0.00 0.00 98 1008.6
20180920065205 46 185 0.0 0.0 0.00 0.00 0.00 97 1008.6
20180920064705 45 185 0.0 0.0 0.00 0.00 0.00 96 1008.6
20180920064205 45 185 0.0 0.0 0.00 0.00 0.00 96 1008.6
20180920063705 45 185 0.0 0.0 0.00 0.00 0.00 97 1008.5
20180920063205 45 185 0.0 0.0 0.00 0.00 0.00 97 1008.6
20180920062705 45 185 0.0 0.0 0.00 0.00 0.00 96 1008.6
20180920062206 46 185 0.0 0.0 0.00 0.00 0.00 96 1008.7
20180920061705 46 185 0.0 0.0 0.00 0.00 0.00 96 1008.7
20180920061205 46 185 0.0 0.0 0.00 0.00 0.00 96 1008.6
20180920060706 46 185 0.0 0.0 0.00 0.00 0.00 96 1008.6
20180920060205 46 185 0.0 0.0 0.00 0.00 0.00 96 1008.6
20180920055705 46 185 0.0 0.0 0.00 0.00 0.00 95 1008.7
20180920055205 46 185 0.0 0.0 0.00 0.00 0.00 94 1008.8
20180920054704 46 185 0.0 0.0 0.00 0.00 0.00 93 1008.9
20180920054205 46 185 0.0 0.0 0.00 0.00 0.00 93 1008.7
20180920053705 46 185 0.0 0.0 0.00 0.00 0.00 93 1008.8
20180920053207 46 185 0.0 0.0 0.00 0.00 0.00 92 1008.7
20180920052706 46 185 0.0 0.0 0.00 0.00 0.00 93 1008.9
20180920052205 46 185 0.0 0.0 0.00 0.00 0.00 92 1008.9
20180920051705 47 185 0.0 0.0 0.00 0.00 0.00 92 1008.9
20180920051205 47 185 0.0 0.0 0.00 0.00 0.00 93 1008.7
20180920050704 47 185 0.0 0.0 0.00 0.00 0.00 92 1008.7
20180920050205 47 185 0.0 0.0 0.00 0.00 0.00 92 1008.8
20180920045704 47 185 0.0 0.0 0.00 0.00 0.00 92 1008.9
20180920045206 47 185 0.0 0.0 0.00 0.00 0.00 92 1008.8
20180920044705 47 185 0.0 0.0 0.00 0.00 0.00 92 1008.9
20180920044206 47 185 0.0 0.0 0.00 0.00 0.00 92 1008.8
20180920043704 48 185 0.0 0.0 0.00 0.00 0.00 92 1008.9
20180920043205 48 185 0.0 0.0 0.00 0.00 0.00 92 1009.0
20180920042706 48 185 0.0 0.0 0.00 0.00 0.00 92 1009.0
20180920042207 48 185 0.0 0.0 0.00 0.00 0.00 92 1009.0
20180920041705 48 185 0.0 0.0 0.00 0.00 0.00 92 1009.1
20180920041205 48 185 0.0 0.0 0.00 0.00 0.00 92 1009.1
20180920040705 48 185 0.0 0.0 0.00 0.00 0.00 91 1009.1
20180920040205 48 185 0.0 0.0 0.00 0.00 0.00 91 1009.1
20180920035705 48 185 0.0 0.0 0.00 0.00 0.00 90 1009.3
20180920035207 48 185 0.0 0.0 0.00 0.00 0.00 90 1009.2
20180920034705 48 185 0.0 0.0 0.00 0.00 0.00 90 1009.2
20180920034205 48 185 0.0 0.0 0.00 0.00 0.00 90 1009.1
20180920033705 49 185 0.0 0.0 0.00 0.00 0.00 89 1009.1
20180920033205 49 185 0.0 0.0 0.00 0.00 0.00 89 1009.2
20180920032705 49 185 0.0 0.0 0.00 0.00 0.00 89 1009.2
20180920032206 49 185 0.0 0.0 0.00 0.00 0.00 89 1009.2
20180920031705 49 185 0.0 0.0 0.00 0.00 0.00 89 1009.1
20180920031205 49 185 0.0 0.0 0.00 0.00 0.00 89 1009.2
20180920030705 49 185 0.0 5.0 0.00 0.00 0.00 89 1009.2
20180920030204 49 185 0.0 5.0 0.00 0.00 0.00 88 1009.1
20180920025705 49 185 0.0 3.0 0.00 0.00 0.00 88 1009.1
20180920025206 49 209 0.0 3.0 0.00 0.00 0.00 88 1009.1
20180920024705 49 187 0.0 0.0 0.00 0.00 0.00 88 1009.1
20180920024205 49 187 0.0 0.0 0.00 0.00 0.00 88 1009.2
20180920023705 49 187 0.0 0.0 0.00 0.00 0.00 88 1009.2
20180920023205 49 187 0.0 0.0 0.00 0.00 0.00 88 1009.1
20180920022705 49 187 0.0 0.0 0.00 0.00 0.00 88 1009.2
20180920022205 49 187 0.0 0.0 0.00 0.00 0.00 88 1009.2
20180920021705 49 187 0.0 0.0 0.00 0.00 0.00 88 1009.2
20180920021205 49 187 0.0 0.0 0.00 0.00 0.00 88 1009.1
20180920020704 50 187 0.0 0.0 0.00 0.00 0.00 88 1009.0
20180920020205 50 187 0.0 0.0 0.00 0.00 0.00 88 1009.1
20180920015704 49 187 0.0 0.0 0.00 0.00 0.00 88 1009.1
20180920015206 49 187 0.0 0.0 0.00 0.00 0.00 89 1009.1
20180920014704 49 187 0.0 0.0 0.00 0.00 0.00 88 1009.0
20180920014205 50 187 0.0 0.0 0.00 0.00 0.00 88 1009.1
20180920013705 50 187 0.0 0.0 0.00 0.00 0.00 88 1009.1
20180920013205 50 187 0.0 0.0 0.00 0.00 0.00 88 1009.2
20180920012705 50 187 0.0 0.0 0.00 0.00 0.00 88 1009.2
20180920012205 50 187 0.0 0.0 0.00 0.00 0.00 87 1009.2
20180920011705 50 187 0.0 0.0 0.00 0.00 0.00 87 1009.1
20180920011205 50 187 0.0 0.0 0.00 0.00 0.00 87 1009.1
20180920010705 50 187 0.0 0.0 0.00 0.00 0.00 86 1009.2
20180920010205 50 187 0.0 0.0 0.00 0.00 0.00 86 1009.3
20180920005705 50 187 0.0 0.0 0.00 0.00 0.00 86 1009.3
20180920005206 50 187 0.0 0.0 0.00 0.00 0.00 86 1009.3
20180920004705 50 187 0.0 0.0 0.00 0.00 0.00 86 1009.3
20180920004205 50 187 0.0 0.0 0.00 0.00 0.00 86 1009.3
20180920003704 50 187 0.0 0.0 0.00 0.00 0.00 85 1009.3
20180920003206 51 187 0.0 0.0 0.00 0.00 0.00 85 1009.3
20180920002705 51 187 0.0 0.0 0.00 0.00 0.00 85 1009.3
20180920002205 51 187 0.0 0.0 0.00 0.00 0.00 85 1009.4
20180920001705 51 187 0.0 0.0 0.00 0.00 0.00 85 1009.4
20180920001205 51 187 0.0 0.0 0.00 0.00 0.00 85 1009.5
20180920000704 51 187 0.0 7.0 0.00 0.00 0.00 85 1009.5
20180920000207 51 187 0.0 8.0 0.00 0.00 0.00 85 1009.4
20180919235705 51 187 0.0 9.0 0.00 0.00 0.00 85 1009.6
20180919235205 51 223 5.0 9.0 0.00 0.00 0.00 85 1009.4
20180919234705 51 156 0.0 9.0 0.00 0.00 0.00 85 1009.4
20180919234205 51 223 5.0 9.0 0.00 0.00 0.00 85 1009.6
20180919233705 51 226 6.0 12.0 0.00 0.00 0.00 85 1009.7
20180919233205 51 212 6.0 12.0 0.00 0.00 0.00 85 1009.7
20180919232706 51 194 3.0 12.0 0.00 0.00 0.00 85 1009.8
20180919232206 51 247 6.0 12.0 0.00 0.00 0.00 86 1009.8
20180919231705 51 209 5.0 11.0 0.00 0.00 0.00 85 1009.8
20180919231205 51 223 5.0 11.0 0.00 0.00 0.00 86 1009.9
20180919230704 51 201 6.0 9.0 0.00 0.00 0.00 85 1009.9
20180919230205 51 195 4.0 9.0 0.00 0.00 0.00 85 1010.0
20180919225705 51 194 3.0 8.0 0.00 0.00 0.00 84 1009.9
20180919225206 51 223 3.0 8.0 0.00 0.00 0.00 84 1009.9
20180919224705 51 195 6.0 6.0 0.00 0.00 0.00 84 1009.9
20180919224205 51 215 2.0 6.0 0.00 0.00 0.00 84 1009.9
20180919223705 51 213 0.0 7.0 0.00 0.00 0.00 83 1009.9
20180919223205 51 202 4.0 7.0 0.00 0.00 0.00 83 1009.9
20180919222705 51 202 1.0 9.0 0.00 0.00 0.00 83 1009.9
20180919222205 51 208 2.0 9.0 0.00 0.00 0.00 82 1009.8
20180919221705 51 180 1.0 9.0 0.00 0.00 0.00 82 1009.8
20180919221205 51 222 6.0 9.0 0.00 0.00 0.00 82 1009.8
20180919220704 51 234 5.0 9.0 0.00 0.00 0.00 82 1009.7
20180919220205 51 182 4.0 8.0 0.00 0.00 0.00 82 1009.7
20180919215705 51 201 4.0 11.0 0.00 0.00 0.00 82 1009.7
20180919215206 52 240 5.0 11.0 0.00 0.00 0.00 82 1009.6
20180919214705 52 208 7.0 11.0 0.00 0.00 0.00 81 1009.6
20180919214206 52 208 1.0 12.0 0.00 0.00 0.00 81 1009.7
20180919213705 52 250 6.0 12.0 0.00 0.00 0.00 82 1009.6
20180919213205 52 230 5.0 12.0 0.00 0.00 0.00 81 1009.6
20180919212704 52 220 4.0 11.0 0.00 0.00 0.00 81 1009.7
20180919212205 52 219 7.0 11.0 0.00 0.00 0.00 81 1009.6
20180919211705 52 212 7.0 11.0 0.00 0.00 0.00 81 1009.7
20180919211205 52 209 7.0 12.0 0.00 0.00 0.00 81 1009.7
20180919210705 52 216 6.0 13.0 0.00 0.00 0.00 81 1009.6
20180919210205 52 168 8.0 13.0 0.00 0.00 0.00 81 1009.7
20180919205705 52 212 9.0 14.0 0.00 0.00 0.00 81 1009.6
20180919205205 52 208 6.0 14.0 0.00 0.00 0.00 81 1009.5
20180919204705 52 199 7.0 14.0 0.00 0.00 0.00 81 1009.5
20180919204206 52 182 5.0 11.0 0.00 0.00 0.00 81 1009.4
20180919203705 52 194 8.0 11.0 0.00 0.00 0.00 82 1009.4
20180919203204 52 208 4.0 12.0 0.00 0.00 0.00 82 1009.5
20180919202704 52 209 6.0 12.0 0.00 0.00 0.00 83 1009.3